Weather History for KMLP - November, 2011

Change the Weather History Date:

Saturday, November 12, 2011

  Actual Average (K3TH) Record (K3TH)
Temperature  
Mean Temperature 22 °F -  
Max Temperature 26 °F 41 °F 72 °F (1999)
Min Temperature 17 °F 30 °F 24 °F (1997)
Degree Days  
Heating Degree Days 44    
Moisture  
Dew Point 19 °F    
Average Humidity 92    
Maximum Humidity 100    
Minimum Humidity 80    
Precipitation  
Precipitation 0.33 in - - ()
Sea Level Pressure  
Sea Level Pressure 29.49 in    
Wind  
Wind Speed 8 mph (WSW)    
Max Wind Speed 14 mph    
Max Gust Speed 33 mph    
Visibility 2 miles    
Events Fog , Rain , Snow    
Averages and records for this station are not official NWS values.
T = Trace of Precipitation, MM = Missing Value Source: NWS Daily Summary

Daily Weather History Graph

Daily Weather History Graph

Search for Another Location

Airport or City:

Trip Planner

Search our weather history database for the weather conditions in past years. The results will help you decide how hot, cold, wet, or windy it might be!

Date:

Astronomy

Nov. 12, 2011 Rise Set
Actual Time 6:42 AM PST 4:10 PM PST
Civil Twilight 6:09 AM PST 4:43 PM PST
Nautical Twilight 5:32 AM PST 5:20 PM PST
Astronomical Twilight 4:56 AM PST 5:56 PM PST
Moon 5:21 PM PST (11/12) 8:36 AM PST (11/12)
Length of Visible Light 10h 34m
Length of Day
9h 27m
Waning Gibbous, 96% of the Moon is Illuminated
Nov 12
Waning Gibbous
Nov 18
Last Quarter
Nov 24
New
Dec 2
First Quarter
Dec 10
Full

Hourly Weather History & Observations

Time (PST) Temp. Windchill Dew Point Humidity Pressure Visibility Wind Dir Wind Speed Gust Speed Precip Events Conditions
12:53 AM 24.1 °F 17.0 °F 23.0 °F 96% 29.24 in 0.5 mi Variable 5.8 mph 16.1 mph 0.07 in Fog , Snow Snow
1:06 AM 23.0 °F 10.6 °F 21.2 °F 93% 29.33 in 1.0 mi SW 13.8 mph 23.0 mph 0.00 in Snow Light Snow
1:09 AM 23.0 °F 11.7 °F 21.2 °F 93% 29.33 in 2.0 mi SW 11.5 mph 20.7 mph 0.00 in Snow Light Snow
1:17 AM 23.0 °F 11.7 °F 21.2 °F 93% 29.34 in 9.0 mi WSW 11.5 mph 20.7 mph 0.00 in   Overcast
1:20 AM 23.0 °F 14.7 °F 21.2 °F 93% 29.34 in 9.0 mi Variable 6.9 mph 19.6 mph 0.00 in   Overcast
1:29 AM 21.2 °F 9.5 °F 21.2 °F 100% 29.35 in 3.0 mi SW 11.5 mph 20.7 mph 0.01 in Snow Light Snow
1:31 AM 21.2 °F 11.7 °F 21.2 °F 100% 29.35 in 1.8 mi SSW 8.1 mph 20.7 mph 0.01 in Snow Light Snow
1:36 AM 21.2 °F 13.6 °F 21.2 °F 100% 29.35 in 1.0 mi SW 5.8 mph 19.6 mph 0.01 in Snow Light Snow
1:38 AM 21.2 °F 10.1 °F 21.2 °F 100% 29.35 in 0.8 mi SW 10.4 mph 19.6 mph 0.01 in Snow Light Snow
1:44 AM 21.2 °F 11.7 °F 19.4 °F 93% 29.35 in 1.0 mi SW 8.1 mph 18.4 mph 0.01 in Snow Light Snow
1:49 AM 21.2 °F 11.7 °F 19.4 °F 93% 29.36 in 2.0 mi SSW 8.1 mph 20.7 mph 0.01 in Snow Light Snow
1:53 AM 21.0 °F 9.3 °F 21.0 °F 100% 29.43 in 3.0 mi SW 11.5 mph 23.0 mph 0.02 in Snow Light Snow
2:02 AM 21.2 °F 11.7 °F 19.4 °F 93% 29.38 in 2.0 mi WSW 8.1 mph 24.2 mph 0.00 in Snow Light Snow
2:18 AM 19.4 °F 10.4 °F 19.4 °F 100% 29.39 in 6.0 mi Variable 6.9 mph - 0.00 in Snow Light Snow
2:45 AM 19.4 °F 10.4 °F 19.4 °F 100% 29.39 in 4.0 mi Variable 6.9 mph - 0.00 in Snow Light Snow
2:53 AM 19.9 °F 8.6 °F 19.0 °F 96% 29.45 in 1.8 mi SSW 10.4 mph 18.4 mph 0.00 in Snow Light Snow
3:06 AM 19.4 °F 8.6 °F 17.6 °F 93% 29.40 in 2.0 mi WSW 9.2 mph 20.7 mph 0.00 in Snow Light Snow
3:14 AM 19.4 °F 8.6 °F 17.6 °F 93% 29.40 in 6.0 mi SW 9.2 mph 21.9 mph 0.00 in Snow Light Snow
3:48 AM 17.6 °F 6.4 °F 17.6 °F 100% 29.41 in 1.8 mi SW 9.2 mph 21.9 mph 0.00 in Snow Light Snow
3:53 AM 18.0 °F 7.7 °F 17.1 °F 96% 29.49 in 1.8 mi SW 8.1 mph 21.9 mph 0.00 in Snow Light Snow
3:58 AM 17.6 °F 6.4 °F 17.6 °F 100% 29.41 in 0.8 mi SW 9.2 mph 21.9 mph 0.00 in Snow Light Snow
4:06 AM 17.6 °F 3.7 °F 17.6 °F 100% 29.41 in 0.5 mi SW 13.8 mph 24.2 mph 0.01 in Fog , Snow Snow
4:23 AM 17.6 °F 9.3 °F 17.6 °F 100% 29.42 in 0.5 mi Variable 5.8 mph 20.7 mph 0.01 in Fog , Snow Light Snow
4:30 AM 17.6 °F 8.2 °F 17.6 °F 100% 29.42 in 1.5 mi Variable 6.9 mph 19.6 mph 0.01 in Snow Light Snow
4:35 AM 17.6 °F 7.3 °F 17.6 °F 100% 29.43 in 3.0 mi SW 8.1 mph - 0.01 in Snow Light Snow
5:13 AM 17.6 °F 8.2 °F 17.6 °F 100% 29.45 in 1.8 mi Variable 6.9 mph - 0.01 in Snow Light Snow
5:19 AM 17.6 °F 10.7 °F 17.6 °F 100% 29.45 in 0.8 mi Variable 4.6 mph - 0.01 in Snow Light Snow
5:53 AM 18.0 °F 8.7 °F 17.1 °F 96% 29.58 in 0.8 mi SW 6.9 mph - 0.03 in Snow Light Snow
6:21 AM 17.6 °F 9.3 °F 17.6 °F 100% 29.49 in 1.0 mi Variable 5.8 mph - 0.01 in Snow Light Snow
6:30 AM 17.6 °F 8.2 °F 17.6 °F 100% 29.49 in 1.2 mi Variable 6.9 mph - 0.01 in Snow Light Snow
6:40 AM 17.6 °F 7.3 °F 17.6 °F 100% 29.50 in 2.0 mi WSW 8.1 mph - 0.01 in Snow Light Snow
6:53 AM 18.0 °F 7.7 °F 17.1 °F 96% 29.62 in 4.0 mi SW 8.1 mph - 0.01 in Snow Light Snow
7:39 AM 19.4 °F 8.6 °F 17.6 °F 93% 29.53 in 1.2 mi WSW 9.2 mph 17.3 mph 0.00 in Snow Light Snow
7:53 AM 19.0 °F 12.3 °F 18.0 °F 96% 29.66 in 1.8 mi Variable 4.6 mph - 0.00 in Snow Light Snow
8:23 AM 19.4 °F 11.5 °F 17.6 °F 93% 29.55 in 1.2 mi Variable 5.8 mph - 0.01 in Snow Light Snow
8:41 AM 19.4 °F 11.5 °F 17.6 °F 93% 29.55 in 1.8 mi Variable 5.8 mph - 0.01 in Snow Light Snow
8:50 AM 19.4 °F 10.4 °F 17.6 °F 93% 29.55 in 2.0 mi Variable 6.9 mph - 0.01 in Snow Light Snow
8:53 AM 19.0 °F 11.1 °F 18.0 °F 96% 29.68 in 1.8 mi WSW 5.8 mph - 0.01 in Snow Light Snow
9:02 AM 19.4 °F 12.8 °F 17.6 °F 93% 29.56 in 0.8 mi Variable 4.6 mph - 0.00 in Snow Light Snow
9:31 AM 19.4 °F 11.5 °F 17.6 °F 93% 29.57 in 0.2 mi Variable 5.8 mph - 0.00 in Fog Light Freezing Fog
9:53 AM 19.9 °F 13.4 °F 19.0 °F 96% 29.70 in 0.2 mi Variable 4.6 mph - 0.00 in Fog Light Freezing Fog
10:10 AM 19.4 °F 12.8 °F 19.4 °F 100% 29.58 in 0.2 mi Variable 4.6 mph - 0.00 in Fog , Rain Light Freezing Rain
10:28 AM 21.2 °F 11.7 °F 19.4 °F 93% 29.59 in 0.2 mi WSW 8.1 mph - 0.01 in Fog , Snow Light Snow
10:46 AM 21.2 °F 14.9 °F 19.4 °F 93% 29.59 in 0.5 mi Variable 4.6 mph - 0.01 in Fog , Snow Light Snow
10:53 AM 21.9 °F 13.4 °F 19.0 °F 89% 29.69 in 0.5 mi Variable 6.9 mph - 0.01 in Fog , Snow Light Snow
11:11 AM 21.2 °F 14.9 °F 19.4 °F 93% 29.58 in 0.2 mi Variable 4.6 mph - 0.00 in Fog , Snow Light Snow
11:35 AM 21.2 °F 13.6 °F 19.4 °F 93% 29.58 in 0.2 mi Variable 5.8 mph - 0.01 in Fog , Snow Light Snow
11:53 AM 21.9 °F 11.0 °F 19.0 °F 89% 29.68 in 0.2 mi WSW 10.4 mph 20.7 mph 0.01 in Fog Light Freezing Fog
12:38 PM 21.2 °F 12.6 °F 19.4 °F 93% 29.56 in 0.2 mi Variable 6.9 mph 24.2 mph 0.00 in Fog , Rain Light Freezing Rain
12:53 PM 23.0 °F 15.8 °F 19.9 °F 88% 29.66 in 0.2 mi Variable 5.8 mph - 0.00 in Fog , Rain Light Freezing Rain
1:53 PM 21.9 °F 13.4 °F 18.0 °F 85% 29.67 in 0.2 mi Variable 6.9 mph - 0.00 in Fog , Rain Light Freezing Rain
2:06 PM 21.2 °F 10.9 °F 19.4 °F 93% 29.53 in 0.2 mi SW 9.2 mph 18.4 mph 0.00 in Fog Light Freezing Fog
2:39 PM 21.2 °F 10.9 °F 19.4 °F 93% 29.52 in 0.2 mi WSW 9.2 mph 19.6 mph 0.00 in Fog , Rain Light Freezing Rain
2:46 PM 21.2 °F 10.9 °F 19.4 °F 93% 29.52 in 0.5 mi West 9.2 mph 21.9 mph 0.00 in Fog , Snow Light Snow
2:53 PM 21.9 °F 10.4 °F 18.0 °F 85% 29.67 in 0.8 mi West 11.5 mph 29.9 mph 0.00 in Snow Light Snow
3:03 PM 21.2 °F 12.6 °F 17.6 °F 86% 29.52 in 1.5 mi Variable 6.9 mph 29.9 mph 0.00 in Snow Light Snow
3:06 PM 21.2 °F 11.7 °F 17.6 °F 86% 29.52 in 3.0 mi WSW 8.1 mph 29.9 mph 0.00 in Snow Light Snow
3:19 PM 21.2 °F 8.3 °F 19.4 °F 93% 29.53 in 1.2 mi SW 13.8 mph 29.9 mph 0.00 in Snow Light Snow
3:36 PM 23.0 °F 11.7 °F 19.4 °F 86% 29.53 in 0.5 mi WSW 11.5 mph 33.4 mph 0.00 in Fog , Snow Light Snow
3:53 PM 23.0 °F 11.7 °F 19.0 °F 85% 29.65 in 0.5 mi WSW 11.5 mph 25.3 mph 0.01 in Fog , Snow Snow
4:53 PM 24.1 °F 15.2 °F 19.0 °F 81% 29.64 in 0.8 mi West 8.1 mph 21.9 mph 0.03 in Snow Light Snow
5:07 PM 24.8 °F 15.3 °F 19.4 °F 80% 29.50 in 0.5 mi West 9.2 mph 29.9 mph 0.01 in Snow Snow
5:24 PM 24.8 °F 16.1 °F 19.4 °F 80% 29.49 in 0.5 mi West 8.1 mph - 0.02 in Fog , Snow Snow
5:53 PM 24.1 °F 16.0 °F 19.9 °F 84% 29.63 in 0.5 mi Variable 6.9 mph - 0.04 in Fog , Snow Snow
6:27 PM 24.8 °F 15.3 °F 19.4 °F 80% 29.47 in 0.8 mi West 9.2 mph 28.8 mph 0.03 in Snow Light Snow
6:46 PM 24.8 °F 16.1 °F 21.2 °F 86% 29.47 in 1.0 mi West 8.1 mph - 0.03 in Snow Light Snow
6:53 PM 24.1 °F 14.4 °F 19.9 °F 84% 29.59 in 1.0 mi West 9.2 mph 21.9 mph 0.03 in Snow Light Snow
7:18 PM 24.8 °F 14.6 °F 19.4 °F 80% 29.46 in 1.2 mi West 10.4 mph 27.6 mph 0.01 in Snow Light Snow
7:46 PM 24.8 °F 19.1 °F 21.2 °F 86% 29.47 in 0.8 mi Variable 4.6 mph 18.4 mph 0.02 in Snow Light Snow
7:53 PM 24.1 °F 17.0 °F 21.0 °F 88% 29.60 in 1.0 mi Variable 5.8 mph - 0.02 in Snow Light Snow
8:06 PM 24.8 °F 17.9 °F 21.2 °F 86% 29.47 in 0.8 mi Variable 5.8 mph - 0.00 in Snow Light Snow
8:17 PM 24.8 °F 16.1 °F 21.2 °F 86% 29.47 in 1.2 mi WSW 8.1 mph - 0.01 in Snow Light Snow
8:36 PM 24.8 °F 20.5 °F 21.2 °F 86% 29.47 in 0.8 mi Variable 3.5 mph - 0.01 in Snow Light Snow
8:44 PM 24.8 °F 16.9 °F 21.2 °F 86% 29.47 in 1.0 mi Variable 6.9 mph - 0.02 in Snow Light Snow
8:53 PM 24.1 °F 16.0 °F 21.0 °F 88% 29.59 in 1.0 mi Variable 6.9 mph - 0.02 in Snow Light Snow
9:03 PM 24.8 °F 16.1 °F 21.2 °F 86% 29.46 in 1.5 mi WSW 8.1 mph - 0.00 in Snow Light Snow
9:13 PM 24.8 °F 16.9 °F 21.2 °F 86% 29.46 in 1.5 mi Variable 6.9 mph 19.6 mph 0.00 in Snow Light Snow
9:22 PM 24.8 °F 16.9 °F 21.2 °F 86% 29.46 in 1.2 mi Variable 6.9 mph - 0.00 in Snow Light Snow
9:53 PM 25.0 °F 14.8 °F 21.0 °F 85% 29.58 in 1.0 mi WSW 10.4 mph 18.4 mph 0.01 in Snow Light Snow
10:15 PM 24.8 °F 16.9 °F 21.2 °F 86% 29.45 in 1.5 mi Variable 6.9 mph 24.2 mph 0.01 in Snow Light Snow
10:29 PM 24.8 °F 14.6 °F 21.2 °F 86% 29.44 in 2.0 mi WSW 10.4 mph 23.0 mph 0.01 in Snow Light Snow
10:53 PM 25.0 °F 16.3 °F 21.9 °F 88% 29.53 in 2.5 mi West 8.1 mph - 0.01 in Snow Light Snow
11:08 PM 24.8 °F 16.1 °F 21.2 °F 86% 29.42 in 1.8 mi WNW 8.1 mph 18.4 mph 0.00 in Snow Light Snow
11:32 PM 24.8 °F 16.1 °F 21.2 °F 86% 29.41 in 1.2 mi NW 8.1 mph - 0.00 in Snow Light Snow
11:53 PM 26.1 °F 19.4 °F 21.9 °F 84% 29.52 in 1.2 mi Variable 5.8 mph - 0.00 in Snow Light Snow
11:59 PM 26.6 °F 16.8 °F 21.2 °F 80% 29.41 in 2.0 mi West 10.4 mph 20.7 mph 0.00 in Snow Light Snow